Time,TemperatureF,DewpointF,PressureIn,WindDirection,WindDirectionDegrees,WindSpeedMPH,WindSpeedGustMPH,Humidity,HourlyPrecipIn,Conditions,Clouds,dailyrainin,SoftwareType,DateUTC
2013-04-10 00:05:00,45.8,41.0,29.91,North,1,0.0,0.0,82,0.00,,,0.00,vanprod,2013-04-10 04:05:00,
2013-04-10 00:15:00,45.7,41.0,29.90,North,1,0.0,0.0,82,0.00,,,0.00,vanprod,2013-04-10 04:15:00,
2013-04-10 00:25:00,45.4,41.0,29.90,North,1,0.0,0.0,83,0.00,,,0.00,vanprod,2013-04-10 04:25:00,
2013-04-10 00:35:00,45.4,41.0,29.89,North,1,0.0,0.0,83,0.00,,,0.00,vanprod,2013-04-10 04:35:00,
2013-04-10 00:45:00,45.2,40.0,29.88,North,1,0.0,0.0,83,0.00,,,0.00,vanprod,2013-04-10 04:45:00,
2013-04-10 00:55:00,45.2,41.0,29.88,North,3,0.0,0.0,84,0.00,,,0.00,vanprod,2013-04-10 04:55:00,
2013-04-10 01:05:00,45.2,40.0,29.88,North,3,0.0,0.0,83,0.00,,,0.00,vanprod,2013-04-10 05:05:00,
2013-04-10 01:15:00,45.2,41.0,29.87,North,3,0.0,0.0,84,0.00,,,0.00,vanprod,2013-04-10 05:15:00,
2013-04-10 01:25:00,45.1,41.0,29.87,North,3,0.0,0.0,84,0.00,,,0.00,vanprod,2013-04-10 05:25:00,
2013-04-10 01:35:00,45.1,41.0,29.89,North,3,0.0,0.0,85,0.00,,,0.00,vanprod,2013-04-10 05:35:00,
2013-04-10 01:45:00,45.1,41.0,29.91,North,0,0.0,0.0,86,0.00,,,0.00,vanprod,2013-04-10 05:45:00,
2013-04-10 01:55:00,45.1,41.0,29.91,North,3,0.0,0.0,86,0.00,,,0.00,vanprod,2013-04-10 05:55:00,
2013-04-10 02:05:00,45.1,42.0,29.90,North,3,0.0,0.0,88,0.00,,,0.01,vanprod,2013-04-10 06:05:00,
2013-04-10 02:15:00,44.9,42.0,29.93,North,3,0.0,0.0,90,0.06,,,0.02,vanprod,2013-04-10 06:15:00,
2013-04-10 02:25:00,44.8,42.0,29.93,North,3,0.0,0.0,91,0.04,,,0.02,vanprod,2013-04-10 06:25:00,
2013-04-10 02:35:00,44.5,42.0,29.92,North,3,0.0,0.0,91,0.00,,,0.02,vanprod,2013-04-10 06:35:00,
2013-04-10 02:45:00,44.5,42.0,29.93,North,3,0.0,0.0,92,0.00,,,0.02,vanprod,2013-04-10 06:45:00,
2013-04-10 02:55:00,44.3,42.0,29.93,North,4,0.0,0.0,92,0.00,,,0.02,vanprod,2013-04-10 06:55:00,
2013-04-10 03:05:00,44.3,42.0,29.92,North,10,0.0,0.0,92,0.00,,,0.03,vanprod,2013-04-10 07:05:00,
2013-04-10 03:15:00,44.3,42.0,29.93,North,8,0.0,0.0,93,0.06,,,0.04,vanprod,2013-04-10 07:15:00,
2013-04-10 03:25:00,44.2,42.0,29.93,North,7,0.0,0.0,93,0.16,,,0.07,vanprod,2013-04-10 07:25:00,
2013-04-10 03:35:00,44.3,43.0,29.93,North,6,0.0,0.0,94,0.10,,,0.09,vanprod,2013-04-10 07:35:00,
2013-04-10 03:45:00,44.2,43.0,29.91,North,7,0.0,1.0,94,0.08,,,0.10,vanprod,2013-04-10 07:45:00,
2013-04-10 03:55:00,44.2,43.0,29.91,North,7,0.0,0.0,94,0.09,,,0.11,vanprod,2013-04-10 07:55:00,
2013-04-10 04:05:00,44.1,42.0,29.87,North,4,0.0,0.0,94,0.06,,,0.12,vanprod,2013-04-10 08:05:00,
2013-04-10 04:15:00,44.1,42.0,29.88,North,8,0.0,0.0,94,0.00,,,0.13,vanprod,2013-04-10 08:15:00,
2013-04-10 04:25:00,44.1,42.0,29.88,North,8,0.0,0.0,94,0.06,,,0.14,vanprod,2013-04-10 08:25:00,
2013-04-10 04:35:00,44.1,43.0,29.88,North,8,0.0,0.0,95,0.05,,,0.14,vanprod,2013-04-10 08:35:00,
2013-04-10 04:45:00,44.1,43.0,29.86,North,8,0.0,0.0,95,0.00,,,0.14,vanprod,2013-04-10 08:45:00,
2013-04-10 04:55:00,44.1,43.0,29.86,North,10,0.0,0.0,95,0.00,,,0.14,vanprod,2013-04-10 08:55:00,
2013-04-10 05:05:00,44.1,43.0,29.86,North,10,0.0,0.0,95,0.00,,,0.14,vanprod,2013-04-10 09:05:00,
2013-04-10 05:15:00,44.1,43.0,29.87,North,11,0.0,0.0,95,0.00,,,0.15,vanprod,2013-04-10 09:15:00,
2013-04-10 05:25:00,44.1,43.0,29.87,NNE,14,0.0,0.0,95,0.00,,,0.15,vanprod,2013-04-10 09:25:00,
2013-04-10 05:35:00,44.1,43.0,29.87,NNE,13,0.0,0.0,95,0.00,,,0.15,vanprod,2013-04-10 09:35:00,
2013-04-10 05:45:00,44.1,43.0,29.87,North,11,0.0,0.0,95,0.00,,,0.15,vanprod,2013-04-10 09:45:00,
2013-04-10 05:55:00,44.1,43.0,29.87,NNE,14,0.0,0.0,95,0.00,,,0.15,vanprod,2013-04-10 09:55:00,
2013-04-10 06:05:00,44.1,43.0,29.87,NNE,14,0.0,0.0,95,0.00,,,0.15,vanprod,2013-04-10 10:05:00,
2013-04-10 06:15:00,44.1,43.0,29.87,NNE,14,0.0,0.0,95,0.00,,,0.15,vanprod,2013-04-10 10:15:00,
2013-04-10 06:25:00,44.1,43.0,29.87,NNE,14,0.0,0.0,95,0.00,,,0.15,vanprod,2013-04-10 10:25:00,
2013-04-10 06:35:00,44.1,43.0,29.87,NNE,14,0.0,0.0,95,0.00,,,0.15,vanprod,2013-04-10 10:35:00,
2013-04-10 06:45:00,44.1,43.0,29.88,NNE,14,0.0,0.0,96,0.00,,,0.15,vanprod,2013-04-10 10:45:00,
2013-04-10 06:55:00,44.1,43.0,29.88,NNE,16,0.0,0.0,96,0.00,,,0.15,vanprod,2013-04-10 10:55:00,
2013-04-10 07:05:00,44.2,43.0,29.88,NNE,16,0.0,0.0,96,0.00,,,0.15,vanprod,2013-04-10 11:05:00,
2013-04-10 07:15:00,44.3,43.0,29.88,NNE,17,0.0,0.0,96,0.00,,,0.15,vanprod,2013-04-10 11:15:00,
2013-04-10 07:25:00,44.5,43.0,29.88,NNE,14,0.0,0.0,96,0.00,,,0.15,vanprod,2013-04-10 11:25:00,
2013-04-10 07:35:00,44.6,43.0,29.88,North,3,0.0,0.0,96,0.00,,,0.15,vanprod,2013-04-10 11:35:00,
2013-04-10 07:45:00,44.8,44.0,29.89,North,0,1.0,0.0,96,0.00,,,0.15,vanprod,2013-04-10 11:45:00,
2013-04-10 07:55:00,44.6,43.0,29.89,North,0,0.0,0.0,96,0.00,,,0.15,vanprod,2013-04-10 11:55:00,
2013-04-10 08:05:00,44.6,43.0,29.89,North,0,0.0,0.0,96,0.00,,,0.15,vanprod,2013-04-10 12:05:00,
2013-04-10 08:15:00,44.9,44.0,29.89,North,0,0.0,0.0,96,0.00,,,0.15,vanprod,2013-04-10 12:15:00,
2013-04-10 08:25:00,45.1,44.0,29.89,North,1,0.0,0.0,96,0.00,,,0.15,vanprod,2013-04-10 12:25:00,
2013-04-10 08:35:00,45.1,44.0,29.90,North,1,0.0,2.0,96,0.00,,,0.15,vanprod,2013-04-10 12:35:00,
2013-04-10 08:45:00,45.1,44.0,29.91,North,0,0.0,0.0,96,0.00,,,0.15,vanprod,2013-04-10 12:45:00,
2013-04-10 08:55:00,45.1,44.0,29.91,North,1,0.0,0.0,96,0.00,,,0.15,vanprod,2013-04-10 12:55:00,
2013-04-10 09:05:00,45.2,44.0,29.90,North,1,0.0,0.0,96,0.00,,,0.15,vanprod,2013-04-10 13:05:00,
2013-04-10 09:15:00,45.4,44.0,29.90,North,0,0.0,0.0,96,0.00,,,0.15,vanprod,2013-04-10 13:15:00,
2013-04-10 09:25:00,45.7,45.0,29.90,North,0,0.0,0.0,96,0.00,,,0.15,vanprod,2013-04-10 13:25:00,
2013-04-10 09:35:00,45.8,45.0,29.90,North,0,0.0,0.0,96,0.00,,,0.15,vanprod,2013-04-10 13:35:00,
2013-04-10 09:45:00,46.1,45.0,29.90,North,1,0.0,1.0,96,0.00,,,0.15,vanprod,2013-04-10 13:45:00,
2013-04-10 09:55:00,46.1,45.0,29.90,North,0,0.0,0.0,95,0.00,,,0.15,vanprod,2013-04-10 13:55:00,
2013-04-10 10:05:00,46.2,45.0,29.90,North,0,0.0,0.0,95,0.00,,,0.15,vanprod,2013-04-10 14:05:00,
2013-04-10 10:15:00,46.7,45.0,29.89,North,0,0.0,0.0,95,0.00,,,0.15,vanprod,2013-04-10 14:15:00,
2013-04-10 10:25:00,47.3,46.0,29.89,NNE,20,0.0,0.0,95,0.00,,,0.15,vanprod,2013-04-10 14:25:00,
2013-04-10 10:35:00,47.6,46.0,29.90,North,4,0.0,0.0,94,0.00,,,0.15,vanprod,2013-04-10 14:35:00,
2013-04-10 10:45:00,48.0,46.0,29.90,North,4,0.0,0.0,93,0.00,,,0.15,vanprod,2013-04-10 14:45:00,
2013-04-10 10:55:00,48.3,46.0,29.90,North,4,0.0,0.0,92,0.00,,,0.15,vanprod,2013-04-10 14:55:00,
2013-04-10 11:05:00,49.4,47.0,29.90,NNE,18,0.0,0.0,90,0.00,,,0.15,vanprod,2013-04-10 15:05:00,
2013-04-10 11:15:00,49.8,46.0,29.90,NNE,17,0.0,0.0,86,0.00,,,0.15,vanprod,2013-04-10 15:15:00,
2013-04-10 11:25:00,50.2,46.0,29.90,NNE,17,0.0,0.0,84,0.00,,,0.15,vanprod,2013-04-10 15:25:00,
2013-04-10 11:35:00,50.8,46.0,29.90,NNE,16,0.0,0.0,82,0.00,,,0.15,vanprod,2013-04-10 15:35:00,
2013-04-10 11:45:00,51.4,46.0,29.90,NNE,13,0.0,0.0,82,0.00,,,0.15,vanprod,2013-04-10 15:45:00,
2013-04-10 11:55:00,52.2,48.0,29.90,North,11,0.0,0.0,84,0.00,,,0.15,vanprod,2013-04-10 15:55:00,
2013-04-10 12:05:00,52.6,47.0,29.89,North,11,0.0,2.0,81,0.00,,,0.15,vanprod,2013-04-10 16:05:00,
2013-04-10 12:15:00,53.1,47.0,29.89,North,10,0.0,0.0,81,0.00,,,0.15,vanprod,2013-04-10 16:15:00,
2013-04-10 12:25:00,53.2,47.0,29.89,North,7,0.0,0.0,80,0.00,,,0.15,vanprod,2013-04-10 16:25:00,
2013-04-10 12:35:00,53.2,47.0,29.88,North,7,1.0,0.0,79,0.00,,,0.15,vanprod,2013-04-10 16:35:00,
2013-04-10 12:45:00,53.1,47.0,29.89,North,8,1.0,0.0,80,0.00,,,0.15,vanprod,2013-04-10 16:45:00,
2013-04-10 12:55:00,52.9,47.0,29.89,North,0,0.0,2.0,80,0.00,,,0.15,vanprod,2013-04-10 16:55:00,
2013-04-10 13:05:00,53.3,47.0,29.88,North,0,0.0,1.0,80,0.00,,,0.15,vanprod,2013-04-10 17:05:00,
2013-04-10 13:15:00,53.9,48.0,29.89,North,3,0.0,0.0,79,0.00,,,0.15,vanprod,2013-04-10 17:15:00,
2013-04-10 13:25:00,55.1,48.0,29.89,North,3,0.0,1.0,78,0.00,,,0.15,vanprod,2013-04-10 17:25:00,
2013-04-10 13:35:00,56.2,48.0,29.88,North,1,1.0,3.0,75,0.00,,,0.15,vanprod,2013-04-10 17:35:00,
2013-04-10 13:45:00,56.7,48.0,29.88,North,6,1.0,3.0,73,0.00,,,0.15,vanprod,2013-04-10 17:45:00,
2013-04-10 13:55:00,57.2,49.0,29.88,North,0,1.0,0.0,73,0.00,,,0.15,vanprod,2013-04-10 17:55:00,
2013-04-10 14:05:00,57.2,48.0,29.87,North,4,1.0,5.0,70,0.00,,,0.15,vanprod,2013-04-10 18:05:00,
2013-04-10 14:15:00,57.0,48.0,29.88,North,3,2.0,0.0,71,0.00,,,0.15,vanprod,2013-04-10 18:15:00,
2013-04-10 14:25:00,56.7,48.0,29.88,North,0,0.0,0.0,72,0.00,,,0.15,vanprod,2013-04-10 18:25:00,
2013-04-10 14:35:00,56.6,48.0,29.88,North,3,1.0,1.0,72,0.00,,,0.15,vanprod,2013-04-10 18:35:00,
2013-04-10 14:45:00,56.6,48.0,29.88,North,4,1.0,0.0,72,0.00,,,0.15,vanprod,2013-04-10 18:45:00,
2013-04-10 14:55:00,56.5,48.0,29.88,North,4,0.0,0.0,73,0.00,,,0.15,vanprod,2013-04-10 18:55:00,
2013-04-10 15:05:00,56.3,48.0,29.87,North,3,0.0,0.0,73,0.00,,,0.15,vanprod,2013-04-10 19:05:00,
2013-04-10 15:15:00,56.3,48.0,29.87,North,4,0.0,0.0,73,0.00,,,0.15,vanprod,2013-04-10 19:15:00,
2013-04-10 15:25:00,56.3,48.0,29.87,North,4,0.0,0.0,73,0.00,,,0.15,vanprod,2013-04-10 19:25:00,
2013-04-10 15:35:00,56.3,48.0,29.86,North,4,0.0,0.0,74,0.00,,,0.15,vanprod,2013-04-10 19:35:00,
2013-04-10 15:45:00,56.3,48.0,29.82,North,6,0.0,3.0,72,0.00,,,0.15,vanprod,2013-04-10 19:45:00,
2013-04-10 15:55:00,56.6,48.0,29.82,North,1,0.0,0.0,72,0.00,,,0.15,vanprod,2013-04-10 19:55:00,
2013-04-10 16:05:00,56.9,48.0,29.79,North,1,1.0,1.0,72,0.00,,,0.15,vanprod,2013-04-10 20:05:00,
2013-04-10 16:15:00,57.6,48.0,29.81,North,3,0.0,0.0,70,0.00,,,0.15,vanprod,2013-04-10 20:15:00,
2013-04-10 16:25:00,58.1,48.0,29.81,North,7,0.0,0.0,69,0.00,,,0.15,vanprod,2013-04-10 20:25:00,
2013-04-10 16:35:00,58.3,48.0,29.83,North,6,0.0,0.0,69,0.00,,,0.15,vanprod,2013-04-10 20:35:00,
2013-04-10 16:45:00,58.1,48.0,29.82,North,4,0.0,0.0,70,0.00,,,0.15,vanprod,2013-04-10 20:45:00,
2013-04-10 16:55:00,58.1,48.0,29.82,North,3,0.0,0.0,70,0.00,,,0.15,vanprod,2013-04-10 20:55:00,
2013-04-10 17:05:00,58.0,48.0,29.84,North,3,0.0,0.0,69,0.00,,,0.15,vanprod,2013-04-10 21:05:00,
2013-04-10 17:15:00,57.5,48.0,29.82,North,3,0.0,0.0,69,0.00,,,0.15,vanprod,2013-04-10 21:15:00,
2013-04-10 17:25:00,57.2,48.0,29.82,North,6,0.0,0.0,70,0.00,,,0.15,vanprod,2013-04-10 21:25:00,
2013-04-10 17:35:00,56.9,48.0,29.82,North,6,1.0,0.0,71,0.00,,,0.15,vanprod,2013-04-10 21:35:00,
2013-04-10 17:45:00,56.7,48.0,29.82,North,6,0.0,0.0,72,0.00,,,0.15,vanprod,2013-04-10 21:45:00,
2013-04-10 17:55:00,56.3,47.0,29.82,North,3,0.0,0.0,71,0.00,,,0.15,vanprod,2013-04-10 21:55:00,
2013-04-10 18:05:00,55.7,47.0,29.82,North,1,1.0,0.0,71,0.00,,,0.15,vanprod,2013-04-10 22:05:00,
2013-04-10 18:15:00,55.1,46.0,29.82,North,3,0.0,0.0,72,0.00,,,0.15,vanprod,2013-04-10 22:15:00,
2013-04-10 18:25:00,54.8,46.0,29.82,North,4,0.0,0.0,73,0.00,,,0.15,vanprod,2013-04-10 22:25:00,
2013-04-10 18:35:00,54.7,47.0,29.81,North,4,0.0,0.0,74,0.00,,,0.15,vanprod,2013-04-10 22:35:00,
2013-04-10 18:45:00,54.4,47.0,29.82,North,6,0.0,0.0,77,0.00,,,0.15,vanprod,2013-04-10 22:45:00,
2013-04-10 18:55:00,54.1,47.0,29.82,North,3,0.0,0.0,76,0.00,,,0.15,vanprod,2013-04-10 22:55:00,
2013-04-10 19:05:00,53.9,47.0,29.80,North,4,0.0,0.0,77,0.00,,,0.15,vanprod,2013-04-10 23:05:00,
2013-04-10 19:15:00,53.6,46.0,29.80,North,3,0.0,0.0,76,0.00,,,0.15,vanprod,2013-04-10 23:15:00,
2013-04-10 19:25:00,53.3,46.0,29.80,South,179,1.0,0.0,77,0.00,,,0.15,vanprod,2013-04-10 23:25:00,
2013-04-10 19:35:00,52.8,45.0,29.80,North,3,2.0,2.0,75,0.00,,,0.15,vanprod,2013-04-10 23:35:00,
2013-04-10 19:45:00,52.3,47.0,29.82,North,7,1.0,0.0,81,0.00,,,0.16,vanprod,2013-04-10 23:45:00,
2013-04-10 19:55:00,51.6,47.0,29.82,North,4,0.0,0.0,85,0.16,,,0.18,vanprod,2013-04-10 23:55:00,
2013-04-10 20:05:00,50.8,47.0,29.82,North,4,0.0,1.0,88,0.27,,,0.21,vanprod,2013-04-11 00:05:00,
2013-04-10 20:15:00,50.1,47.0,29.82,North,4,0.0,0.0,90,0.16,,,0.25,vanprod,2013-04-11 00:15:00,
2013-04-10 20:25:00,49.5,47.0,29.82,North,4,0.0,0.0,91,0.07,,,0.26,vanprod,2013-04-11 00:25:00,
2013-04-10 20:35:00,48.8,46.0,29.84,North,4,0.0,0.0,91,0.14,,,0.28,vanprod,2013-04-11 00:35:00,
2013-04-10 20:45:00,48.5,46.0,29.83,North,3,0.0,0.0,92,0.14,,,0.30,vanprod,2013-04-11 00:45:00,
2013-04-10 20:55:00,48.2,46.0,29.83,North,3,0.0,0.0,92,0.09,,,0.31,vanprod,2013-04-11 00:55:00,
2013-04-10 21:05:00,48.0,46.0,29.84,North,4,0.0,0.0,93,0.04,,,0.32,vanprod,2013-04-11 01:05:00,
2013-04-10 21:15:00,48.0,46.0,29.86,North,4,0.0,0.0,93,0.07,,,0.33,vanprod,2013-04-11 01:15:00,
2013-04-10 21:25:00,47.6,46.0,29.86,North,4,0.0,0.0,93,0.07,,,0.34,vanprod,2013-04-11 01:25:00,
2013-04-10 21:35:00,47.3,46.0,29.87,North,4,0.0,0.0,94,0.05,,,0.35,vanprod,2013-04-11 01:35:00,
2013-04-10 21:45:00,47.1,45.0,29.86,North,3,0.0,0.0,94,0.05,,,0.35,vanprod,2013-04-11 01:45:00,
2013-04-10 21:55:00,47.1,45.0,29.86,North,4,0.0,0.0,94,0.05,,,0.36,vanprod,2013-04-11 01:55:00,
2013-04-10 22:05:00,47.3,46.0,29.84,North,4,0.0,0.0,94,0.00,,,0.36,vanprod,2013-04-11 02:05:00,
2013-04-10 22:15:00,47.3,46.0,29.83,North,6,0.0,0.0,95,0.00,,,0.36,vanprod,2013-04-11 02:15:00,
2013-04-10 22:25:00,47.3,46.0,29.83,North,4,0.0,0.0,95,0.00,,,0.37,vanprod,2013-04-11 02:25:00,
2013-04-10 22:35:00,47.0,46.0,29.83,North,4,0.0,0.0,95,0.00,,,0.37,vanprod,2013-04-11 02:35:00,
2013-04-10 22:45:00,46.8,45.0,29.82,North,4,0.0,0.0,95,0.04,,,0.38,vanprod,2013-04-11 02:45:00,
2013-04-10 22:55:00,46.8,45.0,29.82,North,0,0.0,0.0,95,0.13,,,0.40,vanprod,2013-04-11 02:55:00,
2013-04-10 23:05:00,46.8,45.0,29.83,North,0,1.0,2.0,95,0.07,,,0.41,vanprod,2013-04-11 03:05:00,
2013-04-10 23:15:00,46.8,45.0,29.84,North,1,0.0,0.0,95,0.07,,,0.42,vanprod,2013-04-11 03:15:00,
2013-04-10 23:25:00,46.7,45.0,29.84,North,0,0.0,1.0,95,0.11,,,0.44,vanprod,2013-04-11 03:25:00,
2013-04-10 23:35:00,46.7,45.0,29.84,North,0,0.0,0.0,95,0.05,,,0.44,vanprod,2013-04-11 03:35:00,
2013-04-10 23:45:00,46.5,45.0,29.84,North,0,0.0,0.0,95,0.04,,,0.45,vanprod,2013-04-11 03:45:00,
2013-04-10 23:55:00,46.4,45.0,29.84,North,0,0.0,0.0,95,0.06,,,0.46,vanprod,2013-04-11 03:55:00,